EW1970 Weather Reports


Display with metric or nautical units.
time (UTC)temp
F
wind
direction
speed
MPH
gust
MPH
rain 1hr
in
rain 24hr
in
rain mn
in
humidity
%
barometer
mb
20260502220003 73 107 1.0 5.0 0.00 0.24 0.20 58 1020.5
20260502214504 73 72 0.0 3.0 0.01 0.24 0.20 55 1020.6
20260502213004 74 120 1.0 5.0 0.01 0.25 0.20 45 1020.6
20260502211504 74 149 0.0 3.0 0.01 0.25 0.20 50 1020.9
20260502210004 73 28 1.0 7.0 0.02 0.25 0.20 51 1021.2
20260502204507 74 143 1.0 4.0 0.01 0.24 0.19 49 1021.4
20260502203013 74 336 1.0 5.0 0.02 0.24 0.19 42 1021.6
20260502201505 74 271 2.0 7.0 0.02 0.24 0.19 41 1021.6
20260502200004 73 352 2.0 10.0 0.01 0.23 0.18 50 1021.6
20260502194504 73 35 1.0 4.0 0.02 0.23 0.18 46 1021.6
20260502193003 73 26 1.0 4.0 0.01 0.22 0.17 50 1021.8
20260502191511 72 183 2.0 6.0 0.01 0.22 0.17 52 1021.7
20260502190006 72 352 1.0 7.0 0.02 0.22 0.17 52 1021.8
20260502184505 73 130 1.0 5.0 0.02 0.21 0.16 53 1021.9
20260502183005 71 103 1.0 4.0 0.02 0.21 0.16 56 1022.1
20260502181508 71 9 1.0 5.0 0.03 0.21 0.16 54 1022.4
20260502163018 66 255 2.0 7.0 0.02 0.18 0.12 65 1023.5
20260502161511 65 105 1.0 6.0 0.02 0.17 0.11 63 1023.6
20260502151512 60 307 1.0 8.0 0.01 0.15 0.09 73 1023.5
20260502123004 47 317 0.0 0.0 0.01 0.13 0.07 94 1021.7
20260502121506 47 317 0.0 0.0 0.00 0.12 0.06 94 1021.5
20260502114521 46 317 0.0 0.0 0.01 0.12 0.06 94 1021.1
20260502113021 47 317 0.0 0.0 0.01 0.12 0.06 94 1021.0
20260502111505 47 317 0.0 0.0 0.01 0.12 0.06 93 1020.8
20260502110008 47 317 0.0 0.0 0.01 0.11 0.05 93 1020.4
20260502104518 48 317 0.0 0.0 0.01 0.11 0.05 93 1020.3
20260502103021 48 317 0.0 0.0 0.01 0.11 0.05 93 1019.9
20260502101525 48 317 0.0 2.0 0.01 0.11 0.05 93 1019.6
20260502091524 49 15 1.0 3.0 0.01 0.10 0.04 94 1019.1
20260502071516 50 317 0.0 4.0 0.01 0.08 0.02 94 1019.1
20260502070024 50 309 0.0 2.0 0.01 0.09 0.02 94 1019.0
20260502064524 50 309 0.0 0.0 0.01 0.09 0.02 93 1019.1
20260502063026 50 309 0.0 0.0 0.01 0.09 0.02 93 1018.9
20260502061514 51 309 0.0 2.0 0.00 0.08 0.01 93 1019.0
20260502060004 51 346 0.0 2.0 0.01 0.08 0.01 93 1019.2
20260502054506 51 350 0.0 0.0 0.01 0.08 0.01 93 1019.1
20260502053006 51 350 0.0 2.0 0.01 0.08 0.01 93 1018.8
20260502051512 51 287 0.0 1.0 0.01 0.08 0.01 93 1018.9
20260502050004 52 312 0.0 1.0 0.00 0.07 0.00 93 1018.7
20260502044504 52 304 0.0 2.0 0.01 0.07 0.07 92 1018.7
20260502043007 52 5 0.0 0.0 0.01 0.07 0.07 92 1018.6
20260502041516 53 5 0.0 2.0 0.01 0.07 0.07 92 1018.7
20260502040015 53 338 0.0 2.0 0.01 0.07 0.07 92 1018.6
20260502034504 53 48 0.0 2.0 0.00 0.06 0.06 92 1018.8
20260502033006 53 333 0.0 3.0 0.00 0.06 0.06 91 1018.7
20260502031508 53 81 0.0 3.0 0.01 0.06 0.06 92 1018.5
20260502030020 53 12 0.0 3.0 0.01 0.06 0.06 91 1018.4
20260502024517 53 337 0.0 2.0 0.01 0.06 0.06 91 1018.3
20260502023004 53 332 1.0 3.0 0.01 0.06 0.06 91 1018.1
20260502021503 53 95 0.0 5.0 0.00 0.05 0.05 91 1017.8
20260502020012 53 107 0.0 7.0 0.01 0.05 0.05 91 1017.4
20260502014515 53 71 0.0 3.0 0.01 0.05 0.05 91 1017.2
20260502013020 53 102 0.0 3.0 0.01 0.05 0.05 91 1017.1
20260502011504 53 25 0.0 3.0 0.01 0.06 0.05 91 1016.9
20260502010008 53 236 1.0 5.0 0.00 0.05 0.04 91 1016.6
20260502004513 53 348 1.0 6.0 0.00 0.05 0.04 92 1016.2
20260502003028 53 211 2.0 6.0 0.01 0.05 0.04 92 1016.0
20260502001525 53 136 2.0 11.0 0.01 0.05 0.04 92 1015.6
20260502000007 53 213 1.0 7.0 0.01 0.05 0.04 93 1015.5
20260501234510 53 43 1.0 9.0 0.01 0.05 0.04 93 1016.0
20260501233015 54 119 3.0 11.0 0.00 0.05 0.03 93 1015.4
20260501231520 54 98 2.0 13.0 0.00 0.05 0.03 93 1015.0
20260501230021 54 74 0.0 10.0 0.00 0.05 0.03 93 1015.1
20260501224508 54 82 2.0 10.0 0.00 0.05 0.03 93 1014.9
20260501223015 55 122 1.0 11.0 0.01 0.05 0.03 93 1014.9
20260501221519 56 136 1.0 7.0 0.01 0.06 0.03 93 1014.7